Location: Fauquembergues
(50.6005°N, 2.0987°E)
Time: 10:49:36
(UTC+00:00)

Cosmos 2082 Rocket - Pass Details

Date: 14 July 2020
Orbit: 833 x 853 km, 71.0° (Epoch: 05 August)

Event Time Altitude Azimuth Distance (km) Brightness Sun altitude
Exits shadow 02:22:37 12° 194° (SSW) 2,304 3.9 -11.0°
Maximum altitude 02:27:47 66° 114° (ESE) 932 2.5 -10.5°
Drops below altitude 10° 02:33:27 10° 34° (NE) 2,489 6.3 -10.0°
Sets 02:35:55 0° 32° (NNE) 3,427 7.6 -9.8°
